Location: Wells
(51.2093°N, 2.6446°W)
Time: 11:08:35
(UTC+01:00)

CUTE-I - Pass Details

Date: 13 March 2026
Orbit: 804 x 818 km, 98.7° (Epoch: 20 April)

Event Time Altitude Azimuth Distance (km) Brightness Sun altitude
Rises 18:48:56 0° 205° (SSW) 3,320 ? -6.6°
Reaches altitude 10° 18:51:50 10° 221° (SW) 2,391 ? -7.1°
Maximum altitude 18:55:46 21° 270° (W) 1,749 ? -7.7°
Drops below altitude 10° 18:59:44 10° 319° (NW) 2,399 ? -8.3°
Sets 19:02:40 0° 335° (NNW) 3,333 ? -8.8°
